Regional Weather Roundup
Issued by NWS Huntsville, AL

Home | Current Version | Previous Version | Text Only | Print | Product List | Glossary On
Versions: 1 2 3 4 5 6 7 8 9 10 11 12 13 14 15 16 17 18 19 20 21 22 23 24 25 26 27 28 29 30 31 32 33 34 35 36 37 38 39 40 41 42 43 44 45 46 47 48 49 50
000
ASUS44 KHUN 301310
RWRHUN

WEATHER ROUNDUP FOR THE TENNESSEE VALLEY
NATIONAL WEATHER SERVICE HUNTSVILLE AL
800 AM CDT THU JUL 30 2015

ALZ001>004-301400-
NORTHWEST ALABAMA

CITY           SKY/WX    TMP DP  RH WIND       PRES   REMARKS
COURTLAND HCN    N/A     76  32  20 N3          N/A
BANKHEAD NF      N/A     79  73  83 NW2         N/A
RUSSELLVILLE     N/A     73 N/A N/A MISG        N/A
SHOALS AIRPORT MOSUNNY   79  73  82 N8G16     30.07R
SHOALS TVA RES   N/A     77 N/A N/A MISG        N/A
$$

ALZ005>007-016-301400-
NORTH CENTRAL ALABAMA

CITY           SKY/WX    TMP DP  RH WIND       PRES   REMARKS
DECATUR AP     MOSUNNY   80  75  84 N8        30.05R
HUNTSVILLE AP  MOSUNNY   83  74  74 N10       30.05R
HUN NWS/UAH      N/A     80  71  74 NE8         N/A
MERIDIANVILLE  MOSUNNY   77  70  78 N8        30.06R
REDSTONE ARSN  MOSUNNY   80  76  86 N9        30.04R
VINEMONT AP    CLOUDY    74  74  98 N5        30.08R FOG
$$

ALZ008>010-301400-
NORTHEAST ALABAMA

CITY           SKY/WX    TMP DP  RH WIND       PRES   REMARKS
ALBERTVILLE    MOSUNNY   79  79 100 N7        30.04R FOG
FORT PAYNE     SUNNY     79  70  73 NE3       30.04R
SCOTTSBORO AP  SUNNY     79  77  94 NE3       30.04S
SCOTTSBORO HCN   N/A     77 N/A N/A MISG        N/A
VALLEY HEAD      N/A     75 N/A N/A MISG        N/A
$$

TNZ076-096-097-301400-
SOUTHEASTERN MIDDLE TENNESSEE

CITY           SKY/WX    TMP DP  RH WIND       PRES   REMARKS
TULLAHOMA      CLOUDY    75  70  83 N9        30.10R
WINCHESTER     CLOUDY    75  72  88 CALM      30.08R
$$

...SURROUNDING SITES...

CITY           SKY/WX    TMP DP  RH WIND       PRES   REMARKS
ATLANTA        MOSUNNY   83  73  72 NE6       30.01R
ANNISTON       SUNNY     80  75  84 NW3       30.01R
BIRMINGHAM     MOSUNNY   79  76  90 N5        30.04R
CHATTANOOGA    MOSUNNY   81  69  67 N14       30.04R
DALTON         SUNNY     79  73  83 N7        30.02S
GADSDEN        PTSUNNY   79  73  83 N6        30.01R
GOLDEN TRNGL   SUNNY     79  72  78 N9        30.02R
HALEYVILLE     FAIR      77  76  96 CALM      30.09R
JACKSON TN     PTSUNNY   79  66  64 NE10      30.09R
MEMPHIS        MOSUNNY   82  70  66 NE13      30.08R
NASHVILLE      PTSUNNY   78  66  66 NE12      30.09R
ROME           SUNNY     81  73  76 N6        30.01R
SAVANNAH       SUNNY     77  32  19 NE8       30.08S
TUPELO         SUNNY     79  75  87 NE10      30.05R
TUSCALOOSA     SUNNY     79  72  79 N3        30.02R
$$

...GULF COAST WEATHER...

CITY           SKY/WX    TMP DP  RH WIND       PRES   REMARKS
GULFPORT       MOSUNNY   79  75  87 NW6       30.00R
PASCAGOULA     MOSUNNY   80  76  87 N5        30.00R
MOBILE         PTSUNNY   81  74  79 N10       30.01R
GULF SHORES    MOSUNNY   80  74  82 N5        29.99R
PENSACOLA      PTSUNNY   81  74  79 N6        29.97R
DESTIN         MOSUNNY   81  76  84 NW6       29.96R
PANAMA CITY    MOSUNNY   83  80  90 SW3       29.96R HX  94
APPALACHICOLA  SUNNY     87  80  79 W7        29.96R HX 103
$$



USA.gov is the U.S. government's official web portal to all federal, state and local government web resources and services.